Weather in Panzha

Russia / Republic of Mordovia     53°57′11″N   43°48′25″E
temp.,
°C
wind,
m/s
gust,
m/s
humid.,
%
clouds,
%
prec.,
mm/h
press.,
hPa
HPBL,
m
28 june, tue
tue2800:00+19nnw37910 0.0 1015131
03:00+17nne35960 0.0 101689
06:00+18nne47892 0.0 1016246
09:00+21nne577584 0.0 1016939
12:00+20ne67550 0.1 10181489
15:00+20ne67473 0.1 10191706
18:00+18ne46593 0.0 1019900
21:00+13ne33670 0.0 102139
29 june, wed
wed2900:00+11ne33755 0.0 102134
03:00+9ne11835 0.0 102310
06:00+12nne23705 0.0 1023136
09:00+16nne34540 0.0 10221021
12:00+19n444746 0.0 10221922
15:00+19n344739 0.0 10211967
18:00+19n24577 0.0 1020802
21:00+13e22740 0.0 102011
30 june, thu
thu3000:00+12wsw22760 0.0 101912
03:00+11wnw3369100 0.0 101933
06:00+13wnw377449 0.0 1019199
09:00+18nw585670 0.0 1017813
12:00+21nnw684498 0.0 10161941
15:00+22nnw684218 0.0 10152224
18:00+19n3661100 0.0 1015145
21:00+17nnw2261100 0.0 101522
1 july, fri
fri100:00+13ne497780 0.0 1016208
03:00+10ne33715 0.0 101844
06:00+11nne36685 0.0 1019196
09:00+16nne57511 0.0 10191207
12:00+18nne57445 0.0 10191823
15:00+19n56435 0.0 10192031
18:00+19nne36561 0.0 1019580
21:00+13sse11710 0.0 102011
2 july, sat
sat200:00+12w33725 0.0 102033
03:00+11wnw35730 0.0 102073
06:00+13wnw36760 0.0 1020161
09:00+20wnw46565 0.0 1019573
12:00+23wnw45445 0.0 10181411
15:00+25wnw45445 0.0 10161685
18:00+24w48615 0.0 1015380
21:00+19wnw377666 0.8 1015173